星链-4499 (STARLINK-4499 )

导读 | 星芒AI

STARLINK-4499 是 SpaceX Starlink 卫星互联网项目中的一个低轨卫星。该卫星属于 Starlink 群体的一部分,旨在为全球用户提供高速互联网接入服务。它运行在约 550 公里的近地轨道上,采用先进的通信技术,支持宽带数据传输。STARLINK-4499 有助于提升 Starlink 网络的覆盖范围和连接稳定性,特别是在偏远和网络基础设施不足的地区。该卫星项目由 SpaceX 开发和运营,是实现全球互联网覆盖的重要组成部分。

基本信息
目录编号:
53402
目录名称:
STARLINK-4499
国际标识:
2022-097Q
轨道中心:
EARTH
卫星名称:
星链-4499
卫星全名:
星链-4499 (STARLINK-4499 )
卫星状态:
在轨 (已飞行1183 天)
发射日期:
2022-08-10 UTC
国别 :
美国 (US)
星等 :
--
轨道信息
数据来源 国际轨道数据
星历时间: 2025-11-04T19:17:58+0800
15小时前
查看轨道信息
半长轴: 6917.877km
偏心率: 0.0001509
轨道倾角: 53.217°
近地点辐角 92.846°
升交点赤经 326.248°
平近点角 267.271°
近地点: 538.698km
远地点: 540.786km
周期: 95.437分钟
每日圈数: 15.088412
详细信息
固有亮度:
5
最大亮度:
2.5
卫星平台:
Starlink v1.5
覆盖范围:
全球
运营商:
太空探索技术公司
运营商所在国:
美国
制造商(研发单位):
太空探索技术公司
制造商所在国:
美国
使用方式:
暂无
卫星简介
星链(Starlink)计划是由太空探索技术公司(SpaceX)提出的一个巨型低轨卫星互联网星座项目,计划在2019年至2024年间在太空搭建由约1.2万颗卫星组成的“星链”网络,其中1584颗将部署在地球上空550千米处的近地轨道,并从2020年开始工作。该卫星仍在工作。
2D轨道图
3D轨道图
轨道高度分析图
轨道倾角分析图
轨道综合分析图
查看轨道综合分析图